FW3177 Weather Reports


time (UTC)temp
F
wind
direction
speed
knots
gust
knots
rain 1hr
in
rain 24hr
in
rain mn
in
humidity
%
barometer
mb
20260506180025 57 277 4.3 8.7 0.00 0.00 0.00 83 1019.3
20260506175522 57 274 0.9 9.6 0.00 0.00 0.00 83 1019.2
20260506175022 57 263 0.0 0.0 0.00 0.00 0.00 83 1019.2
20260506174522 57 258 0.0 0.0 0.00 0.00 0.00 84 1019.1
20260506174022 57 245 0.0 0.0 0.00 0.00 0.00 83 1019.2
20260506173522 57 273 0.0 0.0 0.00 0.00 0.00 83 1019.2
20260506173022 57 279 0.0 0.0 0.00 0.00 0.00 83 1019.1
20260506172520 57 262 0.0 6.1 0.00 0.00 0.00 84 1019.1
20260506172021 57 254 0.0 6.1 0.00 0.00 0.00 83 1019.2
20260506171533 57 265 0.0 0.9 0.00 0.00 0.00 84 1019.2
20260506171020 56 245 0.0 1.7 0.00 0.00 0.00 85 1019.2
20260506170519 56 246 0.0 6.1 0.00 0.00 0.00 84 1019.1
20260506170021 56 276 0.0 0.9 0.00 0.00 0.00 84 1019.0
20260506165519 56 283 0.0 7.8 0.00 0.00 0.00 84 1019.1
20260506165019 56 259 0.0 7.8 0.00 0.00 0.00 84 1019.2
20260506164520 56 261 0.0 0.0 0.00 0.00 0.00 84 1019.1
20260506164020 56 274 0.0 0.0 0.00 0.00 0.00 84 1019.2
20260506163523 56 257 0.0 0.0 0.00 0.00 0.00 85 1019.3
20260506163018 56 264 0.0 0.0 0.00 0.00 0.00 85 1019.3
20260506162517 56 252 0.0 0.0 0.00 0.00 0.00 85 1019.2
20260506162020 56 271 0.0 0.0 0.00 0.00 0.00 85 1019.2
20260506161521 56 267 0.0 0.0 0.00 0.00 0.00 85 1019.3
20260506161017 56 248 0.0 0.0 0.00 0.00 0.00 85 1019.4
20260506160521 56 281 0.0 0.0 0.00 0.00 0.00 85 1019.2
20260506160027 56 243 0.0 0.0 0.00 0.00 0.00 85 1019.4
20260506155515 56 256 0.0 0.0 0.00 0.00 0.00 85 1019.3
20260506155015 56 259 0.0 0.0 0.00 0.00 0.00 86 1019.2
20260506154514 55 245 0.0 0.0 0.00 0.00 0.00 86 1019.1
20260506154013 56 283 0.0 0.0 0.00 0.00 0.00 86 1019.1
20260506153514 56 273 0.0 0.0 0.00 0.00 0.00 86 1019.1
20260506153012 55 265 0.0 0.0 0.00 0.00 0.00 86 1019.1
20260506152512 55 274 0.0 0.0 0.00 0.00 0.00 86 1019.0
20260506152012 55 275 0.0 0.0 0.00 0.00 0.00 87 1018.9
20260506151513 55 283 0.0 0.0 0.00 0.00 0.00 87 1018.8
20260506151013 55 264 0.0 0.0 0.00 0.00 0.00 87 1018.7
20260506150516 55 280 0.0 0.0 0.00 0.00 0.00 87 1018.7
20260506150022 55 271 0.0 0.0 0.00 0.00 0.00 87 1018.7
20260506145509 55 271 0.0 0.0 0.00 0.00 0.00 88 1018.7
20260506145008 55 271 0.0 0.0 0.00 0.00 0.00 88 1018.6
20260506144508 54 271 0.0 0.0 0.00 0.00 0.00 88 1018.5
20260506144014 54 271 0.0 0.0 0.00 0.00 0.00 88 1018.6
20260506143510 54 276 0.0 0.0 0.00 0.00 0.00 88 1018.6
20260506143027 54 267 0.0 0.0 0.00 0.00 0.00 88 1018.6
20260506142506 54 250 0.0 0.0 0.00 0.00 0.00 88 1018.6
20260506142006 54 275 0.0 0.0 0.00 0.00 0.00 89 1018.5
20260506141508 54 285 0.0 0.0 0.00 0.00 0.00 89 1018.5
20260506141005 54 279 0.0 0.0 0.00 0.00 0.00 89 1018.6
20260506140505 54 264 0.0 0.0 0.00 0.00 0.00 89 1018.7
20260506140007 54 269 0.0 0.0 0.00 0.00 0.00 89 1018.5
20260506135503 54 252 0.0 0.0 0.00 0.00 0.00 89 1018.4
20260506135003 54 271 0.0 0.0 0.00 0.00 0.00 89 1018.4
20260506134502 54 276 0.0 0.0 0.00 0.00 0.00 90 1018.3
20260506134002 54 276 0.0 0.0 0.00 0.00 0.00 90 1018.2
20260506133502 54 276 0.0 0.0 0.00 0.00 0.00 90 1018.1
20260506133004 54 276 0.0 0.0 0.00 0.00 0.00 90 1018.2
20260506132503 54 276 0.0 0.0 0.00 0.00 0.00 90 1018.1
20260506132001 54 276 0.0 0.0 0.00 0.00 0.00 90 1018.1
20260506131602 54 276 0.0 0.0 0.00 0.00 0.00 90 1018.1
20260506131100 54 276 0.0 0.0 0.00 0.00 0.00 90 1018.1
20260506130559 53 276 0.0 0.0 0.00 0.00 0.00 91 1018.1
20260506130133 53 276 0.0 0.0 0.00 0.00 0.00 91 1018.0
20260506125602 53 276 0.0 0.0 0.00 0.00 0.00 91 1018.0
20260506125058 53 276 0.0 0.0 0.00 0.00 0.00 92 1018.0
20260506124558 53 276 0.0 0.0 0.00 0.00 0.00 92 1018.1
20260506124058 53 276 0.0 0.0 0.00 0.00 0.00 92 1018.1
20260506123559 53 276 0.0 0.0 0.00 0.00 0.00 92 1018.0
20260506123057 53 276 0.0 0.0 0.00 0.00 0.00 92 1018.0
20260506122556 53 276 0.0 0.0 0.00 0.00 0.00 93 1017.8
20260506122054 53 276 0.0 0.0 0.00 0.00 0.00 93 1017.8
20260506121554 53 276 0.0 0.0 0.00 0.00 0.00 93 1017.7
20260506121054 53 276 0.0 0.0 0.00 0.00 0.00 93 1017.7
20260506120553 52 276 0.0 0.0 0.00 0.00 0.00 93 1017.6
20260506120053 52 276 0.0 0.0 0.00 0.00 0.00 93 1017.5
20260506115553 52 276 0.0 0.0 0.00 0.00 0.00 93 1017.5
20260506115052 52 276 0.0 0.0 0.00 0.00 0.00 93 1017.5
20260506114552 52 276 0.0 0.0 0.00 0.00 0.00 93 1017.6
20260506114052 52 276 0.0 0.0 0.00 0.00 0.00 93 1017.6
20260506113550 52 276 0.0 0.0 0.00 0.00 0.00 93 1017.4
20260506113054 52 276 0.0 0.0 0.00 0.00 0.00 93 1017.4
20260506112549 52 276 0.0 0.0 0.00 0.00 0.00 93 1017.4
20260506112049 52 276 0.0 0.0 0.00 0.00 0.00 93 1017.4
20260506111550 52 276 0.0 0.0 0.00 0.00 0.00 93 1017.3
20260506111047 52 276 0.0 0.0 0.00 0.00 0.00 93 1017.3
20260506110548 52 276 0.0 0.0 0.00 0.00 0.00 93 1017.2
20260506110052 52 276 0.0 0.0 0.00 0.00 0.00 93 1017.2
20260506105545 52 276 0.0 0.0 0.00 0.00 0.00 93 1017.0
20260506105046 52 276 0.0 0.0 0.00 0.00 0.00 92 1016.9
20260506104543 52 276 0.0 0.0 0.00 0.00 0.00 92 1016.8
20260506104042 53 276 0.0 0.0 0.00 0.00 0.00 92 1016.8
20260506103541 53 276 0.0 0.0 0.00 0.00 0.00 93 1016.7
20260506103046 53 276 0.0 0.0 0.00 0.00 0.00 92 1016.6
20260506102540 53 276 0.0 0.0 0.00 0.00 0.00 92 1016.6
20260506102038 53 276 0.0 0.0 0.00 0.00 0.00 92 1016.6
20260506101550 53 276 0.0 0.0 0.00 0.00 0.00 92 1016.5
20260506101038 53 276 0.0 0.0 0.00 0.00 0.00 92 1016.4
20260506100536 53 276 0.0 0.0 0.00 0.00 0.00 92 1016.4
20260506100036 53 276 0.0 0.0 0.00 0.00 0.00 92 1016.4
20260506095538 53 276 0.0 0.0 0.00 0.00 0.00 92 1016.4
20260506095035 54 276 0.0 0.0 0.00 0.00 0.00 92 1016.3
20260506094540 54 276 0.0 0.0 0.00 0.00 0.00 92 1016.3
20260506094034 54 276 0.0 0.0 0.00 0.00 0.00 91 1016.3
20260506093532 54 276 0.0 0.0 0.00 0.00 0.00 92 1016.3
20260506093031 54 276 0.0 0.0 0.00 0.00 0.00 91 1016.2
20260506092531 54 276 0.0 0.0 0.00 0.00 0.00 91 1016.2
20260506092032 54 276 0.0 0.0 0.00 0.00 0.00 91 1016.2
20260506091530 55 276 0.0 0.0 0.00 0.00 0.00 91 1016.2
20260506091028 55 276 0.0 0.0 0.00 0.00 0.00 91 1016.1
20260506090529 55 276 0.0 0.0 0.00 0.00 0.00 91 1016.0
20260506090027 55 276 0.0 0.0 0.00 0.00 0.00 91 1016.1
20260506085526 55 276 0.0 0.0 0.00 0.00 0.00 91 1016.0
20260506085026 55 276 0.0 0.0 0.00 0.00 0.00 90 1016.0
20260506084529 55 276 0.0 0.0 0.00 0.00 0.00 90 1016.0
20260506084025 55 276 0.0 0.0 0.00 0.00 0.00 90 1016.0
20260506083524 55 276 0.0 0.0 0.00 0.00 0.00 90 1015.9
20260506083024 55 276 0.0 0.0 0.00 0.00 0.00 90 1015.9
20260506082523 55 276 0.0 0.0 0.00 0.00 0.00 90 1015.9
20260506082026 55 276 0.0 0.0 0.00 0.00 0.00 90 1015.8
20260506081522 55 276 0.0 0.0 0.00 0.00 0.00 90 1015.8
20260506081022 55 276 0.0 0.0 0.00 0.00 0.00 90 1015.8
20260506080521 55 276 0.0 0.0 0.00 0.00 0.00 90 1015.8
20260506073518 56 276 0.0 0.0 0.00 0.00 0.00 88 1015.6
20260506073017 56 276 0.0 0.0 0.00 0.00 0.00 88 1015.6
20260506072518 57 276 0.0 0.0 0.00 0.00 0.00 88 1015.5
20260506072016 57 276 0.0 0.0 0.00 0.00 0.00 88 1015.5
20260506071517 57 276 0.0 0.0 0.00 0.00 0.00 87 1015.5
20260506071014 57 276 0.0 0.0 0.00 0.00 0.00 87 1015.5
20260506070513 57 276 0.0 0.0 0.00 0.00 0.00 86 1015.5
20260506062516 58 276 0.0 0.0 0.00 0.00 0.00 82 1015.1
20260506062010 59 276 0.0 0.0 0.00 0.00 0.00 82 1015.0
20260506061510 59 276 0.0 0.0 0.00 0.00 0.00 82 1015.0
20260506061014 59 276 0.0 0.0 0.00 0.00 0.00 83 1015.0
20260506060509 59 276 0.0 0.0 0.00 0.00 0.00 83 1015.0
20260506051009 60 279 0.0 0.0 0.00 0.00 0.00 78 1014.7
20260506050512 60 279 0.0 0.0 0.00 0.00 0.00 78 1014.7
20260506045006 61 279 0.0 0.0 0.00 0.00 0.00 76 1014.4
20260506044509 61 279 0.0 0.0 0.00 0.00 0.00 75 1014.4
20260506044011 61 263 0.0 0.0 0.00 0.00 0.00 75 1014.3
20260506043505 61 251 0.0 0.0 0.00 0.00 0.00 75 1014.3
20260506043005 62 280 0.0 0.0 0.00 0.00 0.00 74 1014.2
20260506042505 62 262 0.0 0.0 0.00 0.00 0.00 74 1014.1
20260506042007 62 243 0.0 4.3 0.00 0.00 0.00 74 1014.2
20260506041508 62 278 0.9 6.1 0.00 0.00 0.00 73 1014.1
20260506041004 62 271 2.6 6.1 0.00 0.00 0.00 74 1014.0
20260506040505 62 278 0.0 0.0 0.00 0.00 0.00 73 1013.8
20260506040003 62 274 0.0 5.2 0.00 0.00 0.00 73 1013.8
20260506035505 62 278 0.9 7.8 0.00 0.00 0.00 72 1013.8
20260506035003 62 292 1.7 8.7 0.00 0.00 0.00 72 1013.8
20260506034504 62 245 3.5 8.7 0.00 0.00 0.00 72 1013.7
20260506034003 62 264 3.5 7.8 0.00 0.00 0.00 72 1013.7
20260506033502 62 266 2.6 9.6 0.00 0.00 0.00 72 1013.5
20260506033002 62 243 0.0 7.0 0.00 0.00 0.00 72 1013.4
20260506032502 63 267 3.5 7.0 0.00 0.00 0.00 72 1013.4
20260506032003 63 284 3.5 8.7 0.00 0.00 0.00 72 1013.3
20260506031502 63 269 3.5 12.2 0.00 0.00 0.00 72 1013.4
20260506031002 63 250 3.5 12.2 0.00 0.00 0.00 72 1013.3
20260506030501 63 248 5.2 13.0 0.00 0.00 0.00 72 1013.3
20260506030000 63 269 3.5 13.0 0.00 0.00 0.00 72 1013.1
20260506025601 64 280 4.3 13.0 0.00 0.00 0.00 72 1013.1
20260506025100 64 269 4.3 9.6 0.00 0.00 0.00 72 1013.1
20260506024601 64 238 4.3 9.6 0.00 0.00 0.00 72 1013.1
20260506024100 65 272 4.3 9.6 0.00 0.00 0.00 72 1013.1
20260506024001 65 270 4.3 10.4 0.00 0.00 0.00 72 1013.1
20260506023559 65 276 5.2 13.0 0.00 0.00 0.00 71 1013.0
20260506023101 65 266 5.2 13.0 0.00 0.00 0.00 71 1013.1
20260506022559 66 250 5.2 11.3 0.00 0.00 0.00 70 1013.0
20260506022059 66 274 5.2 11.3 0.00 0.00 0.00 70 1013.0
20260506021559 66 255 4.3 8.7 0.00 0.00 0.00 70 1012.9
20260506021101 66 250 3.5 10.4 0.00 0.00 0.00 70 1012.9
20260506020558 67 272 4.3 10.4 0.00 0.00 0.00 69 1013.0
20260506020058 67 281 5.2 10.4 0.00 0.00 0.00 69 1012.9
20260506015559 67 290 5.2 11.3 0.00 0.00 0.00 68 1012.9
20260506015059 68 244 5.2 11.3 0.00 0.00 0.00 67 1012.9
20260506014559 69 278 5.2 11.3 0.00 0.00 0.00 66 1012.8
20260506014101 69 236 3.5 10.4 0.00 0.00 0.00 66 1012.8
20260506013557 69 276 4.3 10.4 0.00 0.00 0.00 65 1012.8
20260506013056 69 277 2.6 7.8 0.00 0.00 0.00 64 1012.7
20260506012557 69 256 3.5 10.4 0.00 0.00 0.00 63 1012.8
20260506012057 69 267 4.3 10.4 0.00 0.00 0.00 63 1012.7
20260506011555 70 294 0.0 7.8 0.00 0.00 0.00 63 1012.7
20260506011055 69 268 3.5 10.4 0.00 0.00 0.00 64 1012.7
20260506010555 69 289 5.2 11.3 0.00 0.00 0.00 62 1012.7
20260506010055 70 267 5.2 11.3 0.00 0.00 0.00 60 1012.8
20260506005555 70 271 3.5 13.0 0.00 0.00 0.00 61 1012.8
20260506005055 70 295 7.0 13.0 0.00 0.00 0.00 60 1012.8
20260506004558 70 297 4.3 11.3 0.00 0.00 0.00 61 1012.8
20260506004054 70 272 3.5 10.4 0.00 0.00 0.00 63 1012.7
20260506003554 70 235 6.1 11.3 0.00 0.00 0.00 63 1012.8
20260506003055 70 259 6.1 13.9 0.00 0.00 0.00 63 1012.7
20260506002554 70 300 4.3 13.9 0.00 0.00 0.00 62 1012.8
20260506002054 71 246 5.2 10.4 0.00 0.00 0.00 61 1012.8
20260506001612 71 262 3.5 13.0 0.00 0.00 0.00 62 1012.8
20260506001053 71 266 4.3 13.0 0.00 0.00 0.00 61 1012.8
20260506000553 70 271 6.1 13.0 0.00 0.00 0.00 61 1012.8
20260506000053 71 242 6.1 12.2 0.00 0.00 0.00 61 1012.9
20260505235552 71 236 6.1 13.9 0.00 0.00 0.00 60 1012.9
20260505235052 71 247 3.5 13.9 0.00 0.00 0.00 60 1012.9
20260505234553 71 252 6.1 12.2 0.00 0.00 0.00 60 1013.0
20260505234054 71 272 4.3 12.2 0.00 0.00 0.00 60 1012.9
20260505233552 71 286 5.2 12.2 0.00 0.00 0.00 60 1013.0
20260505233056 71 248 6.1 12.2 0.00 0.00 0.00 60 1013.0
20260505232552 71 258 6.1 15.6 0.00 0.00 0.00 60 1013.1
20260505232052 71 244 5.2 15.6 0.00 0.00 0.00 61 1013.1
20260505231555 71 281 7.0 13.0 0.00 0.00 0.00 60 1013.1
20260505231050 71 263 7.0 13.0 0.00 0.00 0.00 60 1013.2
20260505230551 72 254 5.2 11.3 0.00 0.00 0.00 59 1013.2
20260505230100 71 263 5.2 12.2 0.00 0.00 0.00 60 1013.3
20260505225550 71 293 5.2 13.9 0.00 0.00 0.00 61 1013.3
20260505225053 71 292 7.0 13.9 0.00 0.00 0.00 60 1013.4
20260505224550 72 283 5.2 11.3 0.00 0.00 0.00 60 1013.5
20260505224049 72 234 4.3 13.9 0.00 0.00 0.00 60 1013.5
20260505223549 71 269 7.0 13.9 0.00 0.00 0.00 61 1013.5
20260505223056 72 252 4.3 13.0 0.00 0.00 0.00 60 1013.5
20260505222549 71 281 6.1 13.0 0.00 0.00 0.00 62 1013.5
20260505222049 71 278 7.0 15.6 0.00 0.00 0.00 61 1013.5
20260505221552 71 274 7.0 13.0 0.00 0.00 0.00 62 1013.5
20260505221049 72 261 6.1 13.0 0.00 0.00 0.00 61 1013.5
20260505220549 71 243 6.1 13.9 0.00 0.00 0.00 62 1013.5
20260505220050 71 295 5.2 15.6 0.00 0.00 0.00 62 1013.6
20260505215546 71 254 7.0 16.5 0.00 0.00 0.00 61 1013.6
20260505215046 71 260 7.0 16.5 0.00 0.00 0.00 61 1013.6
20260505214558 71 271 5.2 12.2 0.00 0.00 0.00 62 1013.7
20260505214045 70 279 5.2 13.9 0.00 0.00 0.00 62 1013.7
20260505213544 71 245 6.1 13.0 0.00 0.00 0.00 61 1013.8
20260505213055 71 276 4.3 13.9 0.00 0.00 0.00 63 1013.7
20260505212544 70 242 7.8 13.9 0.00 0.00 0.00 62 1013.8
20260505212044 71 243 7.0 13.9 0.00 0.00 0.00 61 1013.8
20260505211543 71 264 6.1 13.0 0.00 0.00 0.00 63 1013.8
20260505211044 70 246 6.1 13.9 0.00 0.00 0.00 63 1013.8
20260505210542 70 252 7.8 13.9 0.00 0.00 0.00 63 1013.7
20260505210042 70 280 5.2 11.3 0.00 0.00 0.00 63 1013.8
20260505205543 70 236 6.1 12.2 0.00 0.00 0.00 62 1013.8
20260505205041 71 285 6.1 12.2 0.00 0.00 0.00 62 1013.9
20260505204540 70 252 5.2 12.2 0.00 0.00 0.00 63 1014.0
20260505204040 70 302 7.0 0.0 0.00 0.00 0.00 64 1014.0
20260505203540 70 269 7.0 13.9 0.00 0.00 0.00 64 1014.0
20260505203046 70 260 6.1 12.2 0.00 0.00 0.00 64 1014.1
20260505202539 70 250 6.1 15.6 0.00 0.00 0.00 64 1014.0
20260505202042 70 262 6.1 15.6 0.00 0.00 0.00 64 1014.1
20260505201549 70 253 5.2 15.6 0.00 0.00 0.00 64 1014.1
20260505201039 70 286 6.1 13.0 0.00 0.00 0.00 64 1014.1
20260505200540 70 212 5.2 12.2 0.00 0.00 0.00 64 1014.0
20260505200038 70 252 6.1 14.8 0.00 0.00 0.00 64 1014.1
20260505195538 70 260 6.1 14.8 0.00 0.00 0.00 64 1014.1
20260505195039 70 251 5.2 14.8 0.00 0.00 0.00 64 1014.0
20260505194538 70 287 5.2 11.3 0.00 0.00 0.00 64 1014.1
20260505194038 70 275 5.2 10.4 0.00 0.00 0.00 63 1014.1
20260505193538 70 240 5.2 13.0 0.00 0.00 0.00 64 1014.1
20260505193045 69 272 6.1 13.0 0.00 0.00 0.00 64 1014.2
20260505192539 69 246 4.3 13.0 0.00 0.00 0.00 64 1014.2
20260505192036 69 276 4.3 11.3 0.00 0.00 0.00 64 1014.1
20260505191545 69 264 4.3 12.2 0.00 0.00 0.00 64 1014.2
20260505191035 70 284 6.1 12.2 0.00 0.00 0.00 63 1014.2
20260505190534 70 251 3.5 7.8 0.00 0.00 0.00 63 1014.2
20260505190038 70 246 3.5 9.6 0.00 0.00 0.00 64 1014.2
20260505185535 69 239 3.5 9.6 0.00 0.00 0.00 64 1014.2
20260505185032 69 272 5.2 11.3 0.00 0.00 0.00 65 1014.2
20260505184532 68 284 0.0 11.3 0.00 0.00 0.00 65 1014.3
20260505184031 69 272 5.2 10.4 0.00 0.00 0.00 63 1014.3
20260505183535 68 269 3.5 9.6 0.00 0.00 0.00 63 1014.3
20260505183045 68 280 3.5 9.6 0.00 0.00 0.00 64 1014.4
20260505182529 68 257 2.6 9.6 0.00 0.00 0.00 62 1014.4
20260505182030 68 240 3.5 9.6 0.00 0.00 0.00 63 1014.4
20260505181529 68 268 0.9 7.0 0.00 0.00 0.00 63 1014.4
20260505181030 67 262 0.0 8.7 0.00 0.00 0.00 64 1014.4
20260505180527 67 254 3.5 7.8 0.00 0.00 0.00 62 1014.5